Houston Intercontinental, TX

5:22 AM CDT on April 27, 2017 (GMT -0500)
George Bush Intercontinental-Houston Airport

Weather History for KIAH - May, 2013

Change the Weather History Date:

Monday, May 27, 2013

  Actual Average Record
Temperature  
Mean Temperature 80 °F -  
Max Temperature 90 °F 87 °F 97 °F (2011)
Min Temperature 70 °F 67 °F 64 °F (2014)
Cooling Degree Days 15    
Growing Degree Days 30 (Base 50)    
Moisture  
Dew Point 69 °F    
Average Humidity 71    
Maximum Humidity 93    
Minimum Humidity 43    
Precipitation  
Precipitation 0.00 in - - ()
Sea Level Pressure  
Sea Level Pressure 29.99 in    
Wind  
Wind Speed 9 mph (SSE)    
Max Wind Speed 17 mph    
Max Gust Speed 25 mph    
Visibility 10 miles    
Events      
Averages and records for this station are not official NWS values.
T = Trace of Precipitation, MM = Missing Value Source: NWS Daily Summary

Daily Weather History Graph

Daily Weather History Graph

Search for Another Location

Airport or City:

Trip Planner

Search our weather history database for the weather conditions in past years. The results will help you decide how hot, cold, wet, or windy it might be!

Date:

Astronomy

May. 27, 2013 Rise Set
Actual Time 6:22 AM CDT 8:15 PM CDT
Civil Twilight 5:55 AM CDT 8:42 PM CDT
Nautical Twilight 5:22 AM CDT 9:14 PM CDT
Astronomical Twilight 4:48 AM CDT 9:49 PM CDT
Moon 11:00 PM CDT 8:57 AM CDT
Length of Visible Light 14h 46m
Length of Day
13h 53m
Waning Gibbous, 91% of the Moon is Illuminated
May 27
Waning Gibbous
May 31
Last Quarter
Jun 8
New
Jun 16
First Quarter
Jun 23
Full

Hourly Weather History & Observations

Time (CDT) Temp. Heat Index Dew Point Humidity Pressure Visibility Wind Dir Wind Speed Gust Speed Precip Events Conditions
12:53 AM 75.0 °F - 70.0 °F 84% 30.04 in 10.0 mi SSE 5.8 mph - N/A   Scattered Clouds
1:53 AM 73.9 °F - 71.1 °F 91% 30.02 in 10.0 mi South 5.8 mph - N/A   Scattered Clouds
2:53 AM 75.0 °F - 71.1 °F 87% 30.02 in 10.0 mi South 3.5 mph - N/A   Scattered Clouds
3:53 AM 73.9 °F - 71.1 °F 91% 30.01 in 10.0 mi South 4.6 mph - N/A   Scattered Clouds
4:53 AM 73.9 °F - 71.1 °F 91% 30.01 in 10.0 mi South 3.5 mph - N/A   Scattered Clouds
5:53 AM 71.1 °F - 69.1 °F 93% 30.01 in 10.0 mi South 4.6 mph - N/A   Scattered Clouds
6:53 AM 72.0 °F - 70.0 °F 93% 30.02 in 10.0 mi South 3.5 mph - N/A   Scattered Clouds
7:53 AM 75.0 °F - 71.1 °F 87% 30.03 in 10.0 mi SSE 5.8 mph - N/A   Scattered Clouds
8:53 AM 79.0 °F - 70.0 °F 74% 30.04 in 10.0 mi SSE 11.5 mph - N/A   Scattered Clouds
9:53 AM 82.9 °F 87.0 °F 70.0 °F 65% 30.04 in 10.0 mi South 11.5 mph - N/A   Mostly Cloudy
10:53 AM 86.0 °F 88.8 °F 66.9 °F 53% 30.03 in 10.0 mi SSE 16.1 mph 21.9 mph N/A   Scattered Clouds
11:53 AM 87.1 °F 89.9 °F 66.9 °F 51% 30.02 in 10.0 mi South 16.1 mph 24.2 mph N/A   Mostly Cloudy
12:53 PM 86.0 °F 88.8 °F 66.9 °F 53% 30.01 in 10.0 mi SSE 17.3 mph 23.0 mph N/A   Mostly Cloudy
1:53 PM 88.0 °F 91.4 °F 68.0 °F 51% 29.99 in 10.0 mi SSE 15.0 mph 24.2 mph N/A   Scattered Clouds
2:53 PM 88.0 °F 92.1 °F 69.1 °F 53% 29.97 in 10.0 mi South 16.1 mph 25.3 mph N/A   Mostly Cloudy
3:53 PM 87.1 °F 91.3 °F 69.1 °F 55% 29.95 in 10.0 mi SSE 17.3 mph 25.3 mph N/A   Partly Cloudy
4:53 PM 88.0 °F 92.9 °F 70.0 °F 55% 29.94 in 10.0 mi South 15.0 mph 23.0 mph N/A   Mostly Cloudy
5:53 PM 86.0 °F 90.7 °F 70.0 °F 59% 29.93 in 10.0 mi SSE 16.1 mph 23.0 mph N/A   Mostly Cloudy
6:53 PM 84.0 °F 87.8 °F 69.1 °F 61% 29.92 in 10.0 mi SSE 16.1 mph - N/A   Mostly Cloudy
7:53 PM 82.0 °F 84.5 °F 66.9 °F 60% 29.92 in 10.0 mi SSE 15.0 mph 23.0 mph N/A   Scattered Clouds
8:53 PM 80.1 °F 82.7 °F 68.0 °F 67% 29.94 in 10.0 mi SSE 16.1 mph 21.9 mph N/A   Scattered Clouds
9:53 PM 78.1 °F - 70.0 °F 76% 29.96 in 10.0 mi South 11.5 mph - N/A   Scattered Clouds
10:53 PM 77.0 °F - 70.0 °F 79% 29.97 in 10.0 mi SSE 9.2 mph - N/A   Partly Cloudy
11:53 PM 75.9 °F - 71.1 °F 85% 29.97 in 10.0 mi SSE 10.4 mph - N/A   Mostly Cloudy